STARLINK-35592, 66136

Orbit data source: Space-Track

STARLINK-35592, 66136 is a payload satellite owned by SpaceX/Seattle (US) in LEO that was launched on Wed, 22 Oct 2025 UTC via an FALCON 9 launch vehicle from the Air Force Western Test Range (AFWTR). Payload-class satellites include a variety of spacecraft equipped with specific instruments for various scientific and technological missions. These include communications satellites like Starlink; space stations such as the ISS; scientific satellites like the Hubble; Earth observation satellites from companies like Planet Labs, Umbra, and HawkEye 360; GPS; miniature CubeSats for education and research; and military/defense satellites.

Loading next visibility...
Identifier
66136, 2025-237Y
Orbit
LEO
Country
Flag of USUS
Related business
Manufacturer
SpaceX/Seattle
Mission
Operational Commercial Communications
Bus & Motor
STARLINK V2MO, Unknown motor
Mass
575 kg wet, ~530 kg dry
Launch date (UTC)
2025-10-22 (8 months ago)
Launch vehicle
FALCON 9
Launch site
Air Force Western Test Range (AFWTR)
Object type
Payload
Rocket body
Debris
Shape & HBR
Box + 2 Pan, 17.7 m
Radar Cross Section
36.964 m², Large (>1 m²)

Expand to show TLE details & history
Last TLE update: 14 hours ago

TLE from 14 hours ago
0 STARLINK-35592
1 66136U 25237Y   26171.27243769  .00021784  00000-0  65386-3 0  9991
2 66136  53.1579 282.6222 0001189  71.9678 288.1454 15.34405972 38323
Epoch: 2026-06-20T06:32Z
TLE epoch observation values (Epoch: 2026-06-20T06:32:18.616Z)
Latitude
-0.00002°
Longitude
-83.94482°
Altitude
463.333 km
Speed
7.636 km/s
True Right ascension
18h 50m 29s
True Declination
0° 00' 00"
Sunlit
Object was in full shadow at epoch
Visualization orbit readout
Latitude
Unknown
Longitude
Unknown
Altitude
Unknown
Speed
Unknown
Apparent Right ascension
Unknown
Apparent Declination
Unknown
Sunlit
N/A
Visualization observer readout
Local Sidereal Time
07:20:22
Azimuth
Unknown
Elevation
Unknown
Doppler factor
Unknown
Orbital elements
Apogee altitude
463.756 km
Perigee altitude
462.129 km
Semi-major axis
6,841.08 km
Eccentricity
0.00012
Inclination
53.1579°
RAAN
282.6222°
Arg. of periapsis
71.9678°
True anomaly
288.13245°
Mean anomaly
288.1454°
Eccentric anomaly
288.13893°
Mean motion
3.8358 °/min
Orbital period
93.85 mins
BSTAR
0.00065386
Loading maneuver chart data...
Computing Atmospheric mass density...
Loading historical data...
Loading historical data...
Loading historical data...
Loading historical data...
Loading historical data...
Loading historical data...
Loading historical data...

Documentation

Showing up to 5 results
|